DELTA 1 DEB, 10715

Orbit data source: Space-Track

DELTA 1 DEB, 10715 is space debris in LEO originally from a launch on Thu, 29 Jul 1976 UTC launched from the Air Force Western Test Range (AFWTR). Debris objects in space refer to the collection of defunct objects orbiting the Earth. Examples of debris include non-operational satellites, rocket bodies, and fragments generated from explosions, collisions, or faulty payload assembly.

Loading next visibility...
Identifier
10715, 1976-077AL
Orbit
LEO
Country
Flag of USUS
Related business
Manufacturer
Unknown
Mission
Spacecraft
Bus & Motor
Unknown
Mass
Unknown
Launch date (UTC)
1976-07-29 (49 years ago)
Launch vehicle
Unknown
Launch site
Air Force Western Test Range (AFWTR)
Object type
Payload
Rocket body
Debris
Shape & HBR
Unknown
Radar Cross Section
Medium (>0.1 m² and <1 m²)

Expand to show TLE details & history
Last TLE update: 1 day ago

TLE from 1 day ago
0 DELTA 1 DEB
1 10715U 76077AL  25241.95547270 -.00000009  00000-0  45675-3 0  9994
2 10715 102.5088  29.9518 0433873 328.5800 160.9915 11.63934060 88301
Epoch: 2025-08-29T22:55Z
TLE epoch observation values (Epoch: 2025-08-29T22:55:52.841Z)
Latitude
47.43707°
Longitude
-98.49939°
Altitude
2,192.515 km
Speed
6.683 km/s
True Right ascension
14h 55m 28s
True Declination
47° 17' 40"
Sunlit
Object was in daylight at epoch
Visualization orbit readout
Latitude
Unknown
Longitude
Unknown
Altitude
Unknown
Speed
Unknown
Apparent Right ascension
Unknown
Apparent Declination
Unknown
Sunlit
N/A
Visualization observer readout
Local Sidereal Time
16:46:25
Azimuth
Unknown
Elevation
Unknown
Doppler factor
Unknown
Orbital elements
Apogee altitude
2,200.934 km
Perigee altitude
1,487.445 km
Semi-major axis
8,222.326 km
Eccentricity
0.04339
Inclination
102.5088°
RAAN
29.9518°
Arg. of periapsis
328.58°
True anomaly
162.53155°
Mean anomaly
160.9915°
Eccentric anomaly
161.76921°
Mean motion
2.91106 °/min
Orbital period
123.67 mins
BSTAR
0.00045675
Loading maneuver chart data...
Computing Atmospheric mass density...
Loading historical data...
Loading historical data...
Loading historical data...
Loading historical data...
Loading historical data...
Loading historical data...
Loading historical data...

Documentation

Showing up to 5 results
|